Regional Weather Roundup
Issued by NWS

Home | Current Version | Previous Version | Text Only | Print | Product List | Glossary On
Versions: 1 2 3 4 5 6 7 8 9 10 11 12 13 14 15 16 17 18 19 20 21 22 23 24 25 26 27 28 29 30 31 32 33 34 35 36 37 38 39 40 41 42 43 44 45 46 47 48 49 50
000
ASUS43 KBIS 262110
RWRND

NORTH DAKOTA REGIONAL WEATHER ROUNDUP
NATIONAL WEATHER SERVICE BISMARCK ND
400 PM CDT SUN MAR 26 2017

NOTE: "FAIR" INDICATES FEW OR NO CLOUDS BELOW 12,000 FEET WITH NO
SIGNIFICANT WEATHER AND/OR OBSTRUCTIONS TO VISIBILITY.


NDZ001>003-009>011-017-262200-
NORTHWEST NORTH DAKOTA

CITY           SKY/WX    TMP DP  RH WIND       PRES   REMARKS
WILLISTON      FAIR      64  27  24 W10       29.85F
MINOT          FAIR      59  41  51 E9        29.87F
MINOT AFB      SUNNY     53  41  62 E7        29.86F
$$

NDZ018>021-031>035-040>046-262200-
SOUTHWEST NORTH DAKOTA

CITY           SKY/WX    TMP DP  RH WIND       PRES   REMARKS
BISMARCK       FAIR      62  36  37 E9        29.90F
DICKINSON      PTSUNNY   58  26  29 VRB6      29.86F
GARRISON         N/A     59  33  37 VRB6      29.88F
HETTINGER ARPT CLOUDY    56  32  40 CALM      29.90F
$$

NDZ004>008-012>016-024-026-027-054-262200-
NORTHEAST NORTH DAKOTA

CITY           SKY/WX    TMP DP  RH WIND       PRES   REMARKS
GRAND FORKS    CLOUDY    45  40  82 S6        29.94S
GRND FRKS AFB  CLOUDY    49  41  75 SE5       29.94S
DEVILS LAKE    FAIR      51  41  68 NE5       29.92S
$$

NDZ022-023-025-028>030-036>039-047>053-262200-
SOUTHEAST NORTH DAKOTA

CITY           SKY/WX    TMP DP  RH WIND       PRES   REMARKS
FARGO          CLOUDY    44  37  76 W5        29.95F
JAMESTOWN      CLOUDY    49  39  68 NE5       29.91F
$$




USA.gov is the U.S. government's official web portal to all federal, state and local government web resources and services.